Regional Weather Roundup
Issued by NWS Kansas City/Pleasant Hill, MO

Home | Current Version | Previous Version | Text Only | Print | Product List | Glossary On
Versions: 1 2 3 4 5 6 7 8 9 10 11 12 13 14 15 16 17 18 19 20 21 22 23 24 25 26 27 28 29 30 31 32 33 34 35 36 37 38 39 40 41 42 43 44 45 46 47 48 49 50
000
ASUS43 KEAX 241110
RWREAX

WEATHER ROUNDUP FOR EASTERN KANSAS AND NORTHWEST MISSOURI
NATIONAL WEATHER SERVICE KANSAS CITY/PLEASANT HILL MO
500 AM CST TUE JAN 24 2017

KSZ040-057-103>105-MOZ028-029-037-043-241200-
...KANSAS CITY METROPOLITAN AREA...

CITY           SKY/WX    TMP DP  RH WIND       PRES   REMARKS
K.C. INTL      CLOUDY    31  27  85 E17       29.75F WCI  19
K.C. DOWNTOWN  CLOUDY    32  29  88 E12       29.77F WCI  23
LEES SUMMIT    PTCLDY    30  32 100 E12       29.78S WCI  20
OLATHE - IXD   PTCLDY    32  30  92 E13G20    29.72F WCI  22
OLATHE - OJC   PTCLDY    31  30  96 E13       29.73F WCI  21
LAWRENCE       CLOUDY    33  31  92 E12       29.73F WCI  24

$$

MOZ001>008-011>017-020>025-030>033-038>040-044>046-053-054-241200-
...NORTHERN AND CENTRAL MISSOURI...

CITY           SKY/WX    TMP DP  RH WIND       PRES   REMARKS
ST. JOSEPH     CLOUDY    31  30  96 E12       29.78S WCI  22
MOSBY            N/A     32  30  93 E13       29.80F WCI  22
WARRENSBURG    CLEAR     30  28  93 E8        29.81F WCI  23
WHITEMAN AFB   PTCLDY    29  29 100 E10       29.80F WCI  20
CLINTON        CLEAR     32  32 100 E10       29.80F FOG     WCI  24
SEDALIA        CLOUDY    30  29  96 E12       29.84S FOG     WCI  20
WARSAW         NOT AVBL
CHILLICOTHE      N/A     32  30  92 VRB7      29.86F WCI  26
KIRKSVILLE     CLOUDY    31  29  92 E7        29.87F WCI  24

$$

MOZ041-047>049-056>058-063>065-088>090-097-241200-
...EASTERN AND SOUTHERN MISSOURI...

CITY           SKY/WX    TMP DP  RH WIND       PRES   REMARKS
ST. LOUIS INTL MOCLDY    39  31  72 N3        29.90S
SPIRIT OF STL  CLOUDY    37  35  92 W3        29.90R
COLUMBIA       CLOUDY    33  30  88 E7        29.85F WCI  27
JEFFERSON CITY FOG       26  25  96 SE5       29.88S VSB 3/4 WCI  20
ROLLA          CLEAR     30  30 100 E10       29.84S FOG     WCI  21
OSAGE BEACH    CLEAR     28  27  96 E5        29.85F FOG     WCI  23
SPRINGFIELD    CLEAR     38  32  79 SE14      29.76F WCI  30
BRANSON        CLEAR     34  32  93 SE9       29.80S WCI  26
JOPLIN         CLEAR     41  34  76 E10       29.70F WCI  35
WEST PLAINS    CLEAR     29  27  92 E3        29.86S

$$

IAZ060-094-KSZ022-034>040-054-083-096-NEZ052-066-093-241200-
...KANSAS...SOUTHEAST NEBRASKA AND IOWA...

CITY           SKY/WX    TMP DP  RH WIND       PRES   REMARKS
TOPEKA         CLOUDY    34  30  85 E14       29.69F WCI  25
MANHATTAN      CLOUDY    35  31  85 E12       29.62F WCI  27
EMPORIA        CLOUDY    37  32  82 E15       29.61F WCI  28
CHANUTE        PTCLDY    41  32  70 E13       29.63F WCI  34
WICHITA        CLEAR     40  32  73 SE9       29.53F WCI  34
OMAHA          CLOUDY    30  26  85 E7        29.79S WCI  23
LINCOLN        CLOUDY    31  29  92 E10       29.74F FOG     WCI  22
FALLS CITY     CLOUDY    30  28  92 E13       29.75S WCI  20
LAMONI         CLOUDY    29  27  92 E8        29.81F WCI  21
DES MOINES     CLOUDY    32  28  85 SE8       29.85F WCI  25

$$




USA.gov is the U.S. government's official web portal to all federal, state and local government web resources and services.